ONEWEB-0011 (44062 NORAD) Tracking and Keplerian Element Data

This shows tracking and keplerian element data for the satellite.

Feedback or suggestion? Click here.




ElementValue
Catalog44062
NameONEWEB-0011
Epoch Orbit23486
Epoch Day12.71261601
Epoch Year2024
RAAN75.6521
Inclination87.8982
Eccentricity0.0002025
Argument of Perigee95.3314
Mean Anonmoly264.8047
Mean Motion13.15548007
Decay Rate5.6E-07
L11 44062U 19010F 24012.71261601 .00000056 00000+0 11574-3 0 9991
L22 44062 87.8982 75.6521 0002025 95.3314 264.8047 13.15548007234868



Live tracking and technical data element details for ONEWEB-0011 (NORAD 44062). ONEWEB-0011 can be tracked NOW for your location showing map with azimuth and elevation plus other details from your city location.







IsCatalogInMostPopularTable: catalog: 44062, numindb: 1197
Update: records affected: 1



GetName: 44062 ONEWEB-0011

Hit Count: updated at: Fri, 01 Mar 2024 10:45:07 GMT